timestamp,surface_pressure_avg,surface_temp_avg,battery_voltage,lat,long
2019-12-18 00:09:01+00:00,246.8131,4.07,12.81,47.84626,-54.09684
2019-12-18 00:19:01+00:00,245.8431,3.8,12.73,47.84626,-54.09684
2019-12-18 00:29:01+00:00,242.2498,3.56,12.73,47.84626,-54.09684
2019-12-18 00:39:01+00:00,245.3648,3.47,12.73,47.84626,-54.09684
2019-12-18 00:49:01+00:00,246.9148,3.4,12.73,47.84626,-54.09684
2019-12-18 00:59:01+00:00,250.5865,3.4,12.73,47.84626,-54.09684
2019-12-18 01:09:01+00:00,257.6747,3.46,12.73,47.84626,-54.09684
2019-12-18 01:19:01+00:00,265.5231,3.55,12.73,47.84626,-54.09684
2019-12-18 01:29:01+00:00,272.3714,3.6,12.73,47.84626,-54.09684
2019-12-18 01:39:01+00:00,288.133,3.75,12.73,47.84626,-54.09684
2019-12-18 01:49:01+00:00,303.873,3.8,12.73,47.84626,-54.09684
2019-12-18 01:59:01+00:00,308.5997,3.97,12.73,47.84626,-54.09684
2019-12-18 02:09:01+00:00,310.488,4.23,12.73,47.84626,-54.09684
2019-12-18 02:19:01+00:00,318.3881,4.39,12.73,47.84626,-54.09684
2019-12-18 02:29:01+00:00,325.3713,4.44,12.73,47.84626,-54.09684
2019-12-18 02:39:01+00:00,329.0246,4.49,12.73,47.84626,-54.09684
2019-12-18 02:49:01+00:00,334.61800000000005,4.5,12.73,47.84626,-54.09684
2019-12-18 02:59:01+00:00,342.3412,4.5,12.73,47.84626,-54.09684
2019-12-18 03:09:01+00:00,347.8513,4.4,12.73,47.84626,-54.09684
2019-12-18 03:19:01+00:00,341.5396,4.3,12.73,47.84626,-54.09684
2019-12-18 03:29:01+00:00,339.2397,4.2,12.73,47.84626,-54.09684
2019-12-18 03:39:01+00:00,351.9513,4.33,12.73,47.84626,-54.09684
2019-12-18 03:49:01+00:00,356.1345,4.4,12.73,47.84626,-54.09684
2019-12-18 03:59:01+00:00,348.8412,4.27,12.73,47.84626,-54.09684
2019-12-18 04:09:01+00:00,351.6263,4.3,12.73,47.84626,-54.09684
2019-12-18 04:19:01+00:00,354.4763,4.1,12.73,47.84626,-54.09684
2019-12-18 04:29:01+00:00,351.0446,3.9,12.73,47.84626,-54.09684
2019-12-18 04:39:01+00:00,349.1996,3.92,12.73,47.84626,-54.09684
2019-12-18 04:49:01+00:00,354.3112,4.25,12.73,47.84626,-54.09684
2019-12-18 04:59:01+00:00,352.6112,4.39,12.73,47.84626,-54.09684
2019-12-18 05:09:01+00:00,342.2246,4.39,12.73,47.84626,-54.09684
2019-12-18 05:19:01+00:00,339.8929,4.3,12.73,47.84626,-54.09684
2019-12-18 05:29:01+00:00,338.7596,4.37,12.73,47.84626,-54.09684
2019-12-18 05:39:01+00:00,338.5096,4.4,12.73,47.84626,-54.09684
2019-12-18 05:49:01+00:00,333.0630000000001,4.45,12.73,47.84626,-54.09684
2019-12-18 05:59:01+00:00,323.9596,3.85,12.73,47.84626,-54.09684
2019-12-18 06:09:01+00:00,324.753,4.0,12.73,47.84626,-54.09684
2019-12-18 06:19:01+00:00,320.328,4.1,12.73,47.84626,-54.09684
2019-12-18 06:29:01+00:00,313.1996,3.7,12.73,47.84626,-54.09684
2019-12-18 06:39:01+00:00,307.248,3.88,12.73,47.84626,-54.09684
2019-12-18 06:49:01+00:00,308.043,4.4,12.73,47.84626,-54.09684
2019-12-18 06:59:01+00:00,302.033,3.42,12.73,47.84626,-54.09684
2019-12-18 07:09:01+00:00,284.0681,3.0,12.73,47.84626,-54.09684
2019-12-18 07:19:01+00:00,270.2281,3.39,12.65,47.84626,-54.09684
2019-12-18 07:29:01+00:00,269.8831,3.86,12.65,47.84626,-54.09684
2019-12-18 07:39:01+00:00,269.1564,4.1,12.65,47.84626,-54.09684
2019-12-18 07:49:01+00:00,265.0864,4.0,12.65,47.84626,-54.09684
2019-12-18 07:59:01+00:00,261.6964,3.97,12.65,47.84626,-54.09684
2019-12-18 08:09:01+00:00,267.3948,4.22,12.65,47.84626,-54.09684
2019-12-18 08:19:01+00:00,260.3365,4.2,12.65,47.84626,-54.09684
2019-12-18 08:29:01+00:00,239.8397,3.65,12.65,47.84626,-54.09684
2019-12-18 08:39:01+00:00,232.3064,3.3,12.65,47.84626,-54.09684
2019-12-18 08:49:01+00:00,239.8131,3.2,12.65,47.84626,-54.09684
2019-12-18 08:59:01+00:00,235.6214,3.2,12.65,47.84626,-54.09684
2019-12-18 09:09:01+00:00,218.9064,3.12,12.65,47.84626,-54.09684
2019-12-18 09:19:01+00:00,213.9364,3.22,12.65,47.84626,-54.09684
2019-12-18 09:29:01+00:00,223.6564,3.3,12.65,47.84626,-54.09684
2019-12-18 09:39:01+00:00,223.6064,3.2,12.65,47.84626,-54.09684
2019-12-18 09:49:01+00:00,218.4148,3.13,12.65,47.84626,-54.09684
2019-12-18 09:59:01+00:00,221.2014,3.2,12.65,47.84626,-54.09684
2019-12-18 10:09:01+00:00,227.3131,3.1,12.65,47.84626,-54.09684
2019-12-18 10:19:01+00:00,232.3914,3.41,12.65,47.84626,-54.09684
2019-12-18 10:29:01+00:00,233.7114,3.52,12.65,47.84626,-54.09684
2019-12-18 10:39:01+00:00,245.0564,3.6,12.65,47.84626,-54.09684
2019-12-18 10:49:01+00:00,253.2747,3.59,12.65,47.84626,-54.09684
2019-12-18 10:59:01+00:00,247.9114,3.6,12.65,47.84626,-54.09684
2019-12-18 11:09:01+00:00,247.6931,3.55,12.65,47.84626,-54.09684
2019-12-18 11:19:01+00:00,260.1647,3.7,12.65,47.84626,-54.09684
2019-12-18 11:29:01+00:00,258.6047,3.7,12.65,47.84626,-54.09684
2019-12-18 11:39:01+00:00,251.0297,3.79,12.65,47.84626,-54.09684
2019-12-18 11:49:01+00:00,259.9281,3.8,12.65,47.84626,-54.09684
2019-12-18 11:59:01+00:00,268.6264,3.88,12.65,47.84626,-54.09684
2019-12-18 12:09:01+00:00,267.9014,3.89,12.65,47.84626,-54.09684
2019-12-18 12:19:01+00:00,264.0164,3.8,12.65,47.84626,-54.09684
2019-12-18 12:29:01+00:00,278.6346,3.83,12.65,47.84626,-54.09684
2019-12-18 12:39:01+00:00,286.0264,3.84,12.65,47.84626,-54.09684
2019-12-18 12:49:01+00:00,278.3547,3.9,12.65,47.84626,-54.09684
2019-12-18 12:59:01+00:00,265.4031,3.82,12.65,47.84626,-54.09684
2019-12-18 13:09:01+00:00,276.9431,3.9,12.65,47.84626,-54.09684
2019-12-18 13:19:01+00:00,286.918,3.9,12.97,47.84626,-54.09684
2019-12-18 13:29:01+00:00,282.1298,4.0,12.97,47.84626,-54.09684
2019-12-18 13:39:01+00:00,294.203,4.0,12.97,47.84626,-54.09684
2019-12-18 13:49:01+00:00,314.6346,4.1,12.97,47.84626,-54.09684
2019-12-18 13:59:01+00:00,326.313,4.18,12.97,47.84626,-54.09684
2019-12-18 14:09:01+00:00,321.9847,4.2,12.97,47.84626,-54.09684
2019-12-18 14:19:01+00:00,326.0047,4.2,13.21,47.84626,-54.09684
2019-12-18 14:29:01+00:00,340.5114,4.22,13.21,47.84626,-54.09684
2019-12-18 14:39:01+00:00,345.75300000000016,4.3,13.21,47.84626,-54.09684
2019-12-18 14:49:01+00:00,347.7097,4.34,13.21,47.84626,-54.09684
2019-12-18 14:59:01+00:00,337.9697,4.3,13.21,47.84626,-54.09684
2019-12-18 15:09:01+00:00,350.2346,4.3,13.21,47.84626,-54.09684
2019-12-18 15:19:01+00:00,365.2613,4.3,13.29,47.84626,-54.09684
2019-12-18 15:29:01+00:00,368.3113,4.4,13.29,47.84626,-54.09684
2019-12-18 15:39:01+00:00,371.3663,4.42,13.29,47.84626,-54.09684
2019-12-18 15:49:01+00:00,384.6829,4.43,13.29,47.84626,-54.09684
2019-12-18 15:59:01+00:00,378.3646,4.48,13.29,47.84626,-54.09684
2019-12-18 16:09:01+00:00,367.403,4.4,13.29,47.84626,-54.09684
2019-12-18 16:19:01+00:00,374.5096,4.4,13.29,47.84626,-54.09684
2019-12-18 16:29:01+00:00,373.298,4.4,13.29,47.84626,-54.09684
2019-12-18 16:39:01+00:00,357.3546,4.3,13.29,47.84626,-54.09684
2019-12-18 16:49:01+00:00,357.2764,4.39,13.29,47.84626,-54.09684
2019-12-18 16:59:01+00:00,375.5162,4.4,13.29,47.84626,-54.09684
2019-12-18 17:09:01+00:00,364.2546,4.4,13.29,47.84626,-54.09684
2019-12-18 17:19:01+00:00,353.4729,4.3,13.37,47.84626,-54.09684
2019-12-18 17:29:01+00:00,358.4196,4.4,13.37,47.84626,-54.09684
2019-12-18 17:39:01+00:00,373.918,4.4,13.37,47.84626,-54.09684
2019-12-18 17:49:01+00:00,367.323,4.4,13.37,47.84626,-54.09684
2019-12-18 17:59:01+00:00,353.92800000000005,4.3,13.37,47.84626,-54.09684
2019-12-18 18:09:01+00:00,350.1879,4.3,13.37,47.84626,-54.09684
2019-12-18 18:19:01+00:00,350.2497,4.3,13.13,47.84626,-54.09684
2019-12-18 18:29:01+00:00,335.4613,4.23,13.13,47.84626,-54.09684
2019-12-18 18:39:01+00:00,333.4497,4.3,13.13,47.84626,-54.09684
2019-12-18 18:49:01+00:00,334.153,4.1,13.13,47.84626,-54.09684
2019-12-18 18:59:01+00:00,335.0379,4.1,13.13,47.84626,-54.09684
2019-12-18 19:09:01+00:00,326.2947,4.1,13.13,47.84626,-54.09684
2019-12-18 19:19:01+00:00,322.773,4.1,12.97,47.84626,-54.09684
2019-12-18 19:29:01+00:00,311.463,4.0,12.97,47.84626,-54.09684
2019-12-18 19:39:01+00:00,293.6663,4.0,12.97,47.84626,-54.09684
2019-12-18 19:49:01+00:00,288.3264,4.1,12.97,47.84626,-54.09684
2019-12-18 19:59:01+00:00,289.5947,4.1,12.97,47.84626,-54.09684
2019-12-18 20:09:01+00:00,280.1296,4.09,12.97,47.84626,-54.09684
2019-12-18 20:19:01+00:00,260.5247,4.0,12.81,47.84626,-54.09684
2019-12-18 20:29:01+00:00,244.6531,3.96,12.81,47.84626,-54.09684
2019-12-18 20:39:01+00:00,242.298,4.0,12.81,47.84626,-54.09684
2019-12-18 20:49:01+00:00,239.6964,4.0,12.81,47.84626,-54.09684
2019-12-18 20:59:01+00:00,234.2681,4.0,12.81,47.84626,-54.09684
2019-12-18 21:09:01+00:00,234.4281,4.04,12.81,47.84626,-54.09684
2019-12-18 21:19:01+00:00,239.0581,4.1,12.73,47.84626,-54.09684
2019-12-18 21:29:01+00:00,240.7764,4.1,12.73,47.84626,-54.09684
2019-12-18 21:39:01+00:00,234.8531,4.1,12.73,47.84626,-54.09684
2019-12-18 21:49:01+00:00,235.7515,4.1,12.73,47.84626,-54.09684
2019-12-18 21:59:01+00:00,234.643,4.1,12.73,47.84626,-54.09684
2019-12-18 22:09:01+00:00,229.4598,4.1,12.73,47.84626,-54.09684
2019-12-18 22:19:01+00:00,229.3048,4.13,12.65,47.84626,-54.09684
2019-12-18 22:29:01+00:00,230.5298,4.16,12.65,47.84626,-54.09684
2019-12-18 22:39:01+00:00,232.1647,4.16,12.65,47.84626,-54.09684
2019-12-18 22:49:01+00:00,229.5481,4.17,12.65,47.84626,-54.09684
2019-12-18 22:59:01+00:00,221.7147,4.15,12.65,47.84626,-54.09684
2019-12-18 23:09:01+00:00,221.4448,4.16,12.65,47.84626,-54.09684
2019-12-18 23:19:01+00:00,230.4398,4.17,12.65,47.84626,-54.09684
2019-12-18 23:29:01+00:00,231.8481,4.1,12.65,47.84626,-54.09684
2019-12-18 23:39:01+00:00,228.5648,4.1,12.65,47.84626,-54.09684
2019-12-18 23:49:01+00:00,233.2097,4.09,12.65,47.84626,-54.09684
2019-12-18 23:59:01+00:00,242.5098,4.1,12.65,47.84626,-54.09684
